Time,TemperatureF,DewpointF,PressureIn,WindDirection,WindDirectionDegrees,WindSpeedMPH,WindSpeedGustMPH,Humidity,HourlyPrecipIn,Conditions,Clouds,dailyrainin,SoftwareType,DateUTC
2013-11-27 00:02:00,52.2,44.4,30.09,North,354,0.0,1.0,75,0.00,,,0.00,meteohub,2013-11-27 08:02:00,
2013-11-27 00:07:00,52.3,44.2,30.09,North,354,0.0,1.0,74,0.00,,,0.00,meteohub,2013-11-27 08:07:00,
2013-11-27 00:12:00,52.7,44.6,30.08,North,354,0.0,1.0,74,0.00,,,0.00,meteohub,2013-11-27 08:12:00,
2013-11-27 00:17:00,52.9,44.8,30.08,North,354,1.0,0.0,74,0.00,,,0.00,meteohub,2013-11-27 08:17:00,
2013-11-27 00:22:00,53.2,44.8,30.08,NNE,14,2.0,4.0,73,0.00,,,0.00,meteohub,2013-11-27 08:22:00,
2013-11-27 00:27:00,54.1,45.3,30.08,NE,50,3.0,7.0,72,0.00,,,0.00,meteohub,2013-11-27 08:27:00,
2013-11-27 00:32:00,54.9,45.7,30.08,NE,48,6.0,7.0,71,0.00,,,0.00,meteohub,2013-11-27 08:32:00,
2013-11-27 00:37:00,55.0,45.5,30.08,NE,48,1.0,10.0,70,0.00,,,0.00,meteohub,2013-11-27 08:37:00,
2013-11-27 00:42:00,55.0,45.5,30.07,NNE,24,8.0,10.0,70,0.00,,,0.00,meteohub,2013-11-27 08:42:00,
2013-11-27 00:47:00,55.0,45.1,30.07,NNE,33,9.0,10.0,69,0.00,,,0.00,meteohub,2013-11-27 08:47:00,
2013-11-27 00:52:00,55.0,45.1,30.07,NE,50,6.0,10.0,69,0.00,,,0.00,meteohub,2013-11-27 08:52:00,
2013-11-27 00:57:00,54.9,45.0,30.07,NE,52,8.0,10.0,69,0.00,,,0.00,meteohub,2013-11-27 08:57:00,
2013-11-27 01:02:00,54.9,45.0,30.07,ENE,67,5.0,10.0,69,0.00,,,0.00,meteohub,2013-11-27 09:02:00,
2013-11-27 01:07:00,54.9,45.0,30.07,ENE,69,5.0,11.0,69,0.00,,,0.00,meteohub,2013-11-27 09:07:00,
2013-11-27 01:12:00,55.0,45.1,30.07,ENE,68,7.0,11.0,69,0.00,,,0.00,meteohub,2013-11-27 09:12:00,
2013-11-27 01:17:00,55.2,44.8,30.07,ENE,75,4.0,11.0,68,0.00,,,0.00,meteohub,2013-11-27 09:17:00,
2013-11-27 01:22:00,55.0,44.6,30.06,ENE,70,4.0,10.0,68,0.00,,,0.00,meteohub,2013-11-27 09:22:00,
2013-11-27 01:27:00,55.0,44.6,30.06,NE,52,6.0,10.0,68,0.00,,,0.00,meteohub,2013-11-27 09:27:00,
2013-11-27 01:32:00,54.9,45.0,30.06,ENE,57,5.0,9.0,69,0.00,,,0.00,meteohub,2013-11-27 09:32:00,
2013-11-27 01:37:00,54.7,44.8,30.06,ENE,58,0.0,7.0,69,0.00,,,0.00,meteohub,2013-11-27 09:37:00,
2013-11-27 01:42:00,54.5,44.6,30.06,ENE,57,0.0,7.0,69,0.00,,,0.00,meteohub,2013-11-27 09:42:00,
2013-11-27 01:47:00,54.3,44.4,30.06,NE,56,0.0,7.0,69,0.00,,,0.00,meteohub,2013-11-27 09:47:00,
2013-11-27 01:52:00,54.3,44.4,30.06,ENE,58,0.0,3.0,69,0.00,,,0.00,meteohub,2013-11-27 09:52:00,
2013-11-27 01:57:00,54.1,44.6,30.06,ENE,57,0.0,1.0,70,0.00,,,0.00,meteohub,2013-11-27 09:57:00,
2013-11-27 02:02:00,54.1,44.6,30.06,ENE,57,0.0,1.0,70,0.00,,,0.00,meteohub,2013-11-27 10:02:00,
2013-11-27 02:07:00,54.1,44.2,30.06,ENE,57,0.0,1.0,69,0.00,,,0.00,meteohub,2013-11-27 10:07:00,
2013-11-27 02:12:00,54.0,44.4,30.06,ENE,57,0.0,1.0,70,0.00,,,0.00,meteohub,2013-11-27 10:12:00,
2013-11-27 02:17:00,53.8,44.2,30.06,ENE,57,0.0,0.0,70,0.00,,,0.00,meteohub,2013-11-27 10:17:00,
2013-11-27 02:22:00,53.2,43.7,30.06,ENE,57,0.0,0.0,70,0.00,,,0.00,meteohub,2013-11-27 10:22:00,
2013-11-27 02:28:00,52.5,43.7,30.06,ENE,57,3.0,3.0,72,0.00,,,0.00,meteohub,2013-11-27 10:28:00,
2013-11-27 02:33:00,52.0,43.5,30.05,ENE,57,0.0,4.0,73,0.00,,,0.00,meteohub,2013-11-27 10:33:00,
2013-11-27 02:38:00,52.0,43.9,30.05,ENE,58,0.0,4.0,74,0.00,,,0.00,meteohub,2013-11-27 10:38:00,
2013-11-27 02:43:00,52.0,43.9,30.05,NE,56,0.0,4.0,74,0.00,,,0.00,meteohub,2013-11-27 10:43:00,
2013-11-27 02:48:00,52.2,44.1,30.05,ENE,57,0.0,4.0,74,0.00,,,0.00,meteohub,2013-11-27 10:48:00,
2013-11-27 02:53:00,52.2,44.1,30.04,ENE,57,0.0,0.0,74,0.00,,,0.00,meteohub,2013-11-27 10:53:00,
2013-11-27 02:58:00,52.2,44.1,30.04,ENE,58,0.0,0.0,74,0.00,,,0.00,meteohub,2013-11-27 10:58:00,
2013-11-27 03:03:00,52.2,44.1,30.04,ENE,57,0.0,0.0,74,0.00,,,0.00,meteohub,2013-11-27 11:03:00,
2013-11-27 03:08:00,52.2,44.1,30.04,ENE,57,0.0,0.0,74,0.00,,,0.00,meteohub,2013-11-27 11:08:00,
2013-11-27 03:13:00,52.2,43.7,30.04,ENE,57,0.0,0.0,73,0.00,,,0.00,meteohub,2013-11-27 11:13:00,
2013-11-27 03:18:00,52.0,43.5,30.04,ENE,58,0.0,0.0,73,0.00,,,0.00,meteohub,2013-11-27 11:18:00,
2013-11-27 03:23:00,51.6,43.5,30.04,ENE,57,0.0,0.0,74,0.00,,,0.00,meteohub,2013-11-27 11:23:00,
2013-11-27 03:28:00,51.8,43.7,30.03,ENE,57,0.0,0.0,74,0.00,,,0.00,meteohub,2013-11-27 11:28:00,
2013-11-27 03:33:00,51.8,43.7,30.03,ENE,58,0.0,0.0,74,0.00,,,0.00,meteohub,2013-11-27 11:33:00,
2013-11-27 03:38:00,51.8,43.7,30.03,ENE,57,0.0,1.0,74,0.00,,,0.00,meteohub,2013-11-27 11:38:00,
2013-11-27 03:43:00,51.6,43.5,30.02,ENE,58,0.0,2.0,74,0.00,,,0.00,meteohub,2013-11-27 11:43:00,
2013-11-27 03:48:00,51.6,43.5,30.02,ENE,57,0.0,2.0,74,0.00,,,0.00,meteohub,2013-11-27 11:48:00,
2013-11-27 03:53:00,51.6,43.9,30.02,ENE,57,3.0,3.0,75,0.00,,,0.00,meteohub,2013-11-27 11:53:00,
2013-11-27 03:58:00,51.6,43.5,30.02,ENE,57,0.0,3.0,74,0.00,,,0.00,meteohub,2013-11-27 11:58:00,
2013-11-27 04:03:00,51.6,43.5,30.02,ENE,57,0.0,3.0,74,0.00,,,0.00,meteohub,2013-11-27 12:03:00,
2013-11-27 04:08:00,52.2,44.1,30.02,ENE,58,0.0,3.0,74,0.00,,,0.00,meteohub,2013-11-27 12:08:00,
2013-11-27 04:13:00,52.2,44.1,30.02,ENE,57,0.0,3.0,74,0.00,,,0.00,meteohub,2013-11-27 12:13:00,
2013-11-27 04:18:00,52.3,43.9,30.01,ENE,57,0.0,0.0,73,0.00,,,0.00,meteohub,2013-11-27 12:18:00,
2013-11-27 04:23:00,52.5,44.1,30.01,ENE,58,0.0,0.0,73,0.00,,,0.00,meteohub,2013-11-27 12:23:00,
2013-11-27 04:28:00,52.5,44.1,30.01,ENE,58,0.0,0.0,73,0.00,,,0.00,meteohub,2013-11-27 12:28:00,
2013-11-27 04:33:00,52.7,44.2,30.01,ENE,57,0.0,0.0,73,0.00,,,0.00,meteohub,2013-11-27 12:33:00,
2013-11-27 04:38:00,52.9,44.1,30.01,ENE,57,0.0,0.0,72,0.00,,,0.00,meteohub,2013-11-27 12:38:00,
2013-11-27 04:43:00,53.1,44.2,30.01,ENE,57,0.0,0.0,72,0.00,,,0.00,meteohub,2013-11-27 12:43:00,
2013-11-27 04:48:00,53.2,44.4,30.01,ENE,57,0.0,1.0,72,0.00,,,0.00,meteohub,2013-11-27 12:48:00,
2013-11-27 04:53:00,53.2,44.4,30.01,ENE,57,0.0,1.0,72,0.00,,,0.00,meteohub,2013-11-27 12:53:00,
2013-11-27 04:58:00,53.2,44.1,30.01,ENE,57,0.0,1.0,71,0.00,,,0.00,meteohub,2013-11-27 12:58:00,
2013-11-27 05:04:00,53.2,44.4,30.01,ENE,57,0.0,0.0,72,0.00,,,0.00,meteohub,2013-11-27 13:04:00,
2013-11-27 05:09:00,53.2,44.4,30.01,ENE,57,0.0,2.0,72,0.00,,,0.00,meteohub,2013-11-27 13:09:00,
2013-11-27 05:14:00,53.2,44.1,30.01,ENE,58,2.0,3.0,71,0.00,,,0.00,meteohub,2013-11-27 13:14:00,
2013-11-27 05:19:00,53.1,43.9,30.01,ENE,65,3.0,3.0,71,0.00,,,0.00,meteohub,2013-11-27 13:19:00,
2013-11-27 05:24:00,52.9,44.1,30.01,ENE,65,0.0,4.0,72,0.00,,,0.00,meteohub,2013-11-27 13:24:00,
2013-11-27 05:29:00,52.9,44.1,30.01,ENE,65,0.0,5.0,72,0.00,,,0.00,meteohub,2013-11-27 13:29:00,
2013-11-27 05:34:00,52.9,44.1,30.01,ENE,65,0.0,5.0,72,0.00,,,0.00,meteohub,2013-11-27 13:34:00,
2013-11-27 05:39:00,52.9,44.1,30.01,ENE,65,0.0,1.0,72,0.00,,,0.00,meteohub,2013-11-27 13:39:00,
2013-11-27 05:44:00,52.9,44.1,30.01,ENE,65,0.0,0.0,72,0.00,,,0.00,meteohub,2013-11-27 13:44:00,
2013-11-27 05:49:00,52.9,44.1,30.01,ENE,66,0.0,0.0,72,0.00,,,0.00,meteohub,2013-11-27 13:49:00,
2013-11-27 05:54:00,52.7,43.5,30.01,ENE,65,0.0,3.0,71,0.00,,,0.00,meteohub,2013-11-27 13:54:00,
2013-11-27 05:59:00,52.5,44.1,30.01,ENE,65,0.0,3.0,73,0.00,,,0.00,meteohub,2013-11-27 13:59:00,
2013-11-27 06:04:00,52.5,44.1,30.01,ENE,65,0.0,3.0,73,0.00,,,0.00,meteohub,2013-11-27 14:04:00,
2013-11-27 06:09:00,52.7,43.9,30.01,ENE,65,0.0,2.0,72,0.00,,,0.00,meteohub,2013-11-27 14:09:00,
2013-11-27 06:14:00,52.7,43.9,30.01,ENE,65,4.0,4.0,72,0.00,,,0.00,meteohub,2013-11-27 14:14:00,
2013-11-27 06:19:00,52.7,43.9,30.00,ENE,65,0.0,3.0,72,0.00,,,0.00,meteohub,2013-11-27 14:19:00,
2013-11-27 06:24:00,52.5,44.1,30.01,ENE,65,0.0,5.0,73,0.00,,,0.00,meteohub,2013-11-27 14:24:00,
2013-11-27 06:29:00,52.3,43.9,30.01,ENE,66,0.0,5.0,73,0.00,,,0.00,meteohub,2013-11-27 14:29:00,
2013-11-27 06:34:00,52.2,43.7,30.01,ENE,65,0.0,5.0,73,0.00,,,0.00,meteohub,2013-11-27 14:34:00,
2013-11-27 06:39:00,52.0,43.5,30.01,ENE,65,5.0,5.0,73,0.00,,,0.00,meteohub,2013-11-27 14:39:00,
2013-11-27 06:44:00,52.0,43.9,30.01,ENE,78,6.0,6.0,74,0.00,,,0.00,meteohub,2013-11-27 14:44:00,
2013-11-27 06:49:00,51.8,43.7,30.00,East,80,0.0,8.0,74,0.00,,,0.00,meteohub,2013-11-27 14:49:00,
2013-11-27 06:54:00,51.4,43.5,30.00,East,79,2.0,8.0,74,0.00,,,0.00,meteohub,2013-11-27 14:54:00,
2013-11-27 06:59:00,51.4,43.7,30.00,ENE,78,0.0,8.0,75,0.00,,,0.00,meteohub,2013-11-27 14:59:00,
2013-11-27 07:04:00,51.4,43.7,30.00,ENE,77,1.0,6.0,75,0.00,,,0.00,meteohub,2013-11-27 15:04:00,
2013-11-27 07:09:00,51.6,43.9,30.00,ENE,78,0.0,5.0,75,0.00,,,0.00,meteohub,2013-11-27 15:09:00,
2013-11-27 07:14:00,52.0,43.9,29.99,ENE,63,5.0,5.0,74,0.00,,,0.00,meteohub,2013-11-27 15:14:00,
2013-11-27 07:19:00,52.3,44.2,29.99,NE,45,3.0,4.0,74,0.00,,,0.00,meteohub,2013-11-27 15:19:00,
2013-11-27 07:24:00,52.3,43.9,29.99,NE,46,4.0,6.0,73,0.00,,,0.00,meteohub,2013-11-27 15:24:00,
2013-11-27 07:30:00,52.5,43.7,29.99,ENE,62,0.0,6.0,72,0.00,,,0.00,meteohub,2013-11-27 15:30:00,
2013-11-27 07:35:00,52.5,44.1,29.99,ENE,62,0.0,6.0,73,0.00,,,0.00,meteohub,2013-11-27 15:35:00,
2013-11-27 07:40:00,52.5,43.7,29.99,ENE,58,3.0,6.0,72,0.00,,,0.00,meteohub,2013-11-27 15:40:00,
2013-11-27 07:45:00,52.7,43.9,29.99,ENE,58,3.0,5.0,72,0.00,,,0.00,meteohub,2013-11-27 15:45:00,
2013-11-27 07:50:00,52.7,43.9,29.99,ENE,60,0.0,4.0,72,0.00,,,0.00,meteohub,2013-11-27 15:50:00,
2013-11-27 07:55:00,52.7,43.9,29.99,ENE,60,0.0,4.0,72,0.00,,,0.00,meteohub,2013-11-27 15:55:00,
2013-11-27 08:00:00,52.7,43.9,29.99,ENE,58,0.0,4.0,72,0.00,,,0.00,meteohub,2013-11-27 16:00:00,
2013-11-27 08:05:00,52.7,43.9,29.99,ENE,62,0.0,3.0,72,0.00,,,0.00,meteohub,2013-11-27 16:05:00,
2013-11-27 08:10:00,52.9,44.1,29.99,ENE,60,0.0,4.0,72,0.00,,,0.00,meteohub,2013-11-27 16:10:00,
2013-11-27 08:15:00,52.9,44.1,29.99,ENE,59,0.0,4.0,72,0.00,,,0.00,meteohub,2013-11-27 16:15:00,
2013-11-27 08:20:00,53.1,44.2,29.99,ENE,59,2.0,4.0,72,0.00,,,0.00,meteohub,2013-11-27 16:20:00,
2013-11-27 08:25:00,53.2,44.1,29.99,ENE,60,0.0,4.0,71,0.00,,,0.00,meteohub,2013-11-27 16:25:00,
2013-11-27 08:30:00,53.6,44.1,30.00,ENE,60,1.0,5.0,70,0.00,,,0.00,meteohub,2013-11-27 16:30:00,
2013-11-27 08:35:00,54.0,44.1,30.00,ENE,67,3.0,7.0,69,0.00,,,0.00,meteohub,2013-11-27 16:35:00,
2013-11-27 08:40:00,54.3,44.1,29.99,NE,52,3.0,7.0,68,0.00,,,0.00,meteohub,2013-11-27 16:40:00,
2013-11-27 08:45:00,54.5,43.7,29.99,ENE,74,5.0,7.0,67,0.00,,,0.00,meteohub,2013-11-27 16:45:00,
2013-11-27 08:50:00,54.9,44.1,29.99,ENE,66,9.0,9.0,67,0.00,,,0.00,meteohub,2013-11-27 16:50:00,
2013-11-27 08:55:00,55.0,43.9,29.99,ENE,57,7.0,9.0,66,0.00,,,0.00,meteohub,2013-11-27 16:55:00,
2013-11-27 09:00:00,55.0,43.9,30.00,NE,56,4.0,10.0,66,0.00,,,0.00,meteohub,2013-11-27 17:00:00,
2013-11-27 09:05:00,55.6,44.1,29.99,ENE,67,3.0,10.0,65,0.00,,,0.00,meteohub,2013-11-27 17:05:00,
2013-11-27 09:10:00,55.6,43.2,29.99,ENE,59,4.0,11.0,63,0.00,,,0.00,meteohub,2013-11-27 17:10:00,
2013-11-27 09:15:00,55.6,43.2,29.99,ENE,64,8.0,11.0,63,0.00,,,0.00,meteohub,2013-11-27 17:15:00,
2013-11-27 09:21:00,55.9,43.5,30.00,East,92,9.0,11.0,63,0.00,,,0.00,meteohub,2013-11-27 17:21:00,
2013-11-27 09:26:00,55.9,43.2,30.00,ENE,75,8.0,11.0,62,0.00,,,0.00,meteohub,2013-11-27 17:26:00,
2013-11-27 09:31:00,55.9,43.2,30.00,NE,49,5.0,11.0,62,0.00,,,0.00,meteohub,2013-11-27 17:31:00,
2013-11-27 09:36:00,56.3,43.5,30.00,ENE,65,3.0,11.0,62,0.00,,,0.00,meteohub,2013-11-27 17:36:00,
2013-11-27 09:41:00,56.8,43.5,30.00,ENE,77,2.0,10.0,61,0.00,,,0.00,meteohub,2013-11-27 17:41:00,
2013-11-27 09:46:00,57.0,43.3,30.00,East,83,6.0,8.0,60,0.00,,,0.00,meteohub,2013-11-27 17:46:00,
2013-11-27 09:51:00,57.2,43.5,29.99,East,91,1.0,9.0,60,0.00,,,0.00,meteohub,2013-11-27 17:51:00,
2013-11-27 09:56:00,57.4,43.2,29.99,East,101,4.0,11.0,59,0.00,,,0.00,meteohub,2013-11-27 17:56:00,
2013-11-27 10:01:00,57.4,43.2,29.99,East,89,1.0,11.0,59,0.00,,,0.00,meteohub,2013-11-27 18:01:00,
2013-11-27 10:06:00,57.6,43.3,29.99,East,87,7.0,11.0,59,0.00,,,0.00,meteohub,2013-11-27 18:06:00,
2013-11-27 10:11:00,57.9,43.2,29.99,ENE,66,5.0,10.0,58,0.00,,,0.00,meteohub,2013-11-27 18:11:00,
2013-11-27 10:16:00,58.3,43.5,29.99,ENE,68,5.0,8.0,58,0.00,,,0.00,meteohub,2013-11-27 18:16:00,
2013-11-27 10:21:00,58.5,43.7,29.99,ENE,70,8.0,8.0,58,0.00,,,0.00,meteohub,2013-11-27 18:21:00,
2013-11-27 10:26:00,58.6,43.5,29.99,ENE,62,8.0,10.0,57,0.00,,,0.00,meteohub,2013-11-27 18:26:00,
2013-11-27 10:31:00,58.5,43.7,29.99,East,86,8.0,11.0,58,0.00,,,0.00,meteohub,2013-11-27 18:31:00,
2013-11-27 10:36:00,58.5,43.7,29.98,ENE,62,4.0,13.0,58,0.00,,,0.00,meteohub,2013-11-27 18:36:00,
2013-11-27 10:41:00,58.8,43.7,29.98,ENE,66,4.0,13.0,57,0.00,,,0.00,meteohub,2013-11-27 18:41:00,
2013-11-27 10:46:00,59.0,43.7,29.98,ENE,70,9.0,13.0,57,0.00,,,0.00,meteohub,2013-11-27 18:46:00,
2013-11-27 10:51:00,59.0,43.7,29.98,ENE,59,9.0,13.0,57,0.00,,,0.00,meteohub,2013-11-27 18:51:00,
2013-11-27 10:56:00,59.2,43.5,29.97,NE,46,7.0,16.0,56,0.00,,,0.00,meteohub,2013-11-27 18:56:00,
2013-11-27 10:57:00,59.2,43.5,29.97,ENE,77,9.0,16.0,56,0.00,,,0.00,meteohub,2013-11-27 18:57:00,
2013-11-27 11:02:00,59.5,43.9,29.97,NE,43,5.0,16.0,56,0.00,,,0.00,meteohub,2013-11-27 19:02:00,
2013-11-27 11:07:00,59.9,44.2,29.96,ENE,75,4.0,13.0,56,0.00,,,0.00,meteohub,2013-11-27 19:07:00,
2013-11-27 11:12:00,60.3,44.1,29.96,East,89,8.0,12.0,55,0.00,,,0.00,meteohub,2013-11-27 19:12:00,
2013-11-27 11:17:00,60.3,44.1,29.96,NE,50,4.0,14.0,55,0.00,,,0.00,meteohub,2013-11-27 19:17:00,
2013-11-27 11:22:00,60.4,44.2,29.96,NE,36,5.0,14.0,55,0.00,,,0.00,meteohub,2013-11-27 19:22:00,
2013-11-27 11:27:00,60.6,43.9,29.95,NE,48,7.0,14.0,54,0.00,,,0.00,meteohub,2013-11-27 19:27:00,
2013-11-27 11:32:00,60.4,44.2,29.95,ENE,78,7.0,14.0,55,0.00,,,0.00,meteohub,2013-11-27 19:32:00,
2013-11-27 11:37:00,60.3,43.5,29.95,ESE,102,10.0,14.0,54,0.00,,,0.00,meteohub,2013-11-27 19:37:00,
2013-11-27 11:42:00,60.6,44.4,29.95,ENE,78,14.0,15.0,55,0.00,,,0.00,meteohub,2013-11-27 19:42:00,
2013-11-27 11:47:00,60.6,43.9,29.95,ENE,58,8.0,15.0,54,0.00,,,0.00,meteohub,2013-11-27 19:47:00,
2013-11-27 11:52:00,60.6,43.9,29.95,ENE,74,4.0,15.0,54,0.00,,,0.00,meteohub,2013-11-27 19:52:00,
2013-11-27 11:57:00,61.0,44.2,29.95,ENE,75,8.0,14.0,54,0.00,,,0.00,meteohub,2013-11-27 19:57:00,
2013-11-27 12:02:00,60.6,43.9,29.94,ENE,70,4.0,15.0,54,0.00,,,0.00,meteohub,2013-11-27 20:02:00,
2013-11-27 12:08:00,60.8,44.1,29.94,NE,38,5.0,15.0,54,0.00,,,0.00,meteohub,2013-11-27 20:08:00,
2013-11-27 12:13:00,61.0,44.2,29.94,ENE,73,5.0,15.0,54,0.00,,,0.00,meteohub,2013-11-27 20:13:00,
2013-11-27 12:18:00,60.6,43.9,29.94,ENE,62,8.0,15.0,54,0.00,,,0.00,meteohub,2013-11-27 20:18:00,
2013-11-27 12:23:00,60.6,44.4,29.94,East,81,7.0,15.0,55,0.00,,,0.00,meteohub,2013-11-27 20:23:00,
2013-11-27 12:28:00,60.8,44.6,29.93,NE,56,11.0,12.0,55,0.00,,,0.00,meteohub,2013-11-27 20:28:00,
2013-11-27 12:33:00,60.6,44.4,29.93,ENE,68,4.0,12.0,55,0.00,,,0.00,meteohub,2013-11-27 20:33:00,
2013-11-27 12:38:00,60.4,44.6,29.93,NE,56,14.0,14.0,56,0.00,,,0.00,meteohub,2013-11-27 20:38:00,
2013-11-27 12:43:00,60.3,45.0,29.93,ENE,64,8.0,14.0,57,0.00,,,0.00,meteohub,2013-11-27 20:43:00,
2013-11-27 12:48:00,60.3,45.0,29.93,NE,56,9.0,14.0,57,0.00,,,0.00,meteohub,2013-11-27 20:48:00,
2013-11-27 12:53:00,60.6,45.3,29.93,NE,54,6.0,14.0,57,0.00,,,0.00,meteohub,2013-11-27 20:53:00,
2013-11-27 12:58:00,60.6,44.8,29.92,NE,41,8.0,11.0,56,0.00,,,0.00,meteohub,2013-11-27 20:58:00,
2013-11-27 13:03:00,60.6,45.3,29.92,NE,53,5.0,11.0,57,0.00,,,0.00,meteohub,2013-11-27 21:03:00,
2013-11-27 13:08:00,60.8,45.0,29.92,NNE,33,9.0,11.0,56,0.00,,,0.00,meteohub,2013-11-27 21:08:00,
2013-11-27 13:13:00,61.2,45.3,29.91,NE,49,4.0,11.0,56,0.00,,,0.00,meteohub,2013-11-27 21:13:00,
2013-11-27 13:18:00,61.7,45.9,29.91,ENE,68,10.0,10.0,56,0.00,,,0.00,meteohub,2013-11-27 21:18:00,
2013-11-27 13:23:00,61.7,45.3,29.91,NE,44,6.0,13.0,55,0.00,,,0.00,meteohub,2013-11-27 21:23:00,
2013-11-27 13:28:00,61.7,45.9,29.91,NE,54,8.0,13.0,56,0.00,,,0.00,meteohub,2013-11-27 21:28:00,
2013-11-27 13:33:00,62.1,45.7,29.91,NE,42,6.0,13.0,55,0.00,,,0.00,meteohub,2013-11-27 21:33:00,
2013-11-27 13:38:00,62.1,45.7,29.91,NE,48,6.0,11.0,55,0.00,,,0.00,meteohub,2013-11-27 21:38:00,
2013-11-27 13:43:00,62.2,45.9,29.90,NE,52,7.0,11.0,55,0.00,,,0.00,meteohub,2013-11-27 21:43:00,
2013-11-27 13:48:00,62.2,45.9,29.90,NNE,27,6.0,10.0,55,0.00,,,0.00,meteohub,2013-11-27 21:48:00,
2013-11-27 13:53:00,62.2,45.9,29.90,NE,36,4.0,10.0,55,0.00,,,0.00,meteohub,2013-11-27 21:53:00,
2013-11-27 13:58:00,62.2,45.9,29.90,NE,45,9.0,14.0,55,0.00,,,0.00,meteohub,2013-11-27 21:58:00,
2013-11-27 14:03:00,62.2,45.9,29.90,ENE,71,10.0,14.0,55,0.00,,,0.00,meteohub,2013-11-27 22:03:00,
2013-11-27 14:08:00,62.4,46.0,29.90,ENE,70,4.0,14.0,55,0.00,,,0.00,meteohub,2013-11-27 22:08:00,
2013-11-27 14:13:00,62.4,46.0,29.90,NE,41,7.0,12.0,55,0.00,,,0.00,meteohub,2013-11-27 22:13:00,
2013-11-27 14:18:00,62.4,46.6,29.90,NE,41,4.0,11.0,56,0.00,,,0.00,meteohub,2013-11-27 22:18:00,
2013-11-27 14:23:00,62.6,46.8,29.90,NE,43,3.0,10.0,56,0.00,,,0.00,meteohub,2013-11-27 22:23:00,
2013-11-27 14:28:00,62.4,46.6,29.90,ENE,69,3.0,10.0,56,0.00,,,0.00,meteohub,2013-11-27 22:28:00,
2013-11-27 14:33:00,62.4,46.6,29.90,NE,48,6.0,9.0,56,0.00,,,0.00,meteohub,2013-11-27 22:33:00,
2013-11-27 14:38:00,62.1,46.6,29.90,ENE,57,4.0,10.0,57,0.00,,,0.00,meteohub,2013-11-27 22:38:00,
2013-11-27 14:43:00,61.9,46.4,29.90,NE,45,5.0,10.0,57,0.00,,,0.00,meteohub,2013-11-27 22:43:00,
2013-11-27 14:48:00,61.5,46.6,29.90,ENE,62,7.0,10.0,58,0.00,,,0.00,meteohub,2013-11-27 22:48:00,
2013-11-27 14:53:00,61.5,46.6,29.90,NE,49,6.0,10.0,58,0.00,,,0.00,meteohub,2013-11-27 22:53:00,
2013-11-27 14:58:00,61.3,46.4,29.90,East,87,15.0,15.0,58,0.00,,,0.00,meteohub,2013-11-27 22:58:00,
2013-11-27 15:03:00,61.3,46.4,29.90,ENE,70,8.0,15.0,58,0.00,,,0.00,meteohub,2013-11-27 23:03:00,
2013-11-27 15:08:00,61.2,46.2,29.89,NE,53,9.0,15.0,58,0.00,,,0.00,meteohub,2013-11-27 23:08:00,
2013-11-27 15:13:00,61.2,46.2,29.89,ENE,67,8.0,15.0,58,0.00,,,0.00,meteohub,2013-11-27 23:13:00,
2013-11-27 15:19:00,61.0,46.0,29.89,ENE,76,7.0,12.0,58,0.00,,,0.00,meteohub,2013-11-27 23:19:00,
2013-11-27 15:24:00,61.0,46.0,29.89,ENE,67,0.0,13.0,58,0.00,,,0.00,meteohub,2013-11-27 23:24:00,
2013-11-27 15:29:00,60.8,45.9,29.89,ENE,74,1.0,13.0,58,0.00,,,0.00,meteohub,2013-11-27 23:29:00,
2013-11-27 15:34:00,60.6,45.7,29.89,ENE,74,7.0,13.0,58,0.00,,,0.00,meteohub,2013-11-27 23:34:00,
2013-11-27 15:39:00,60.4,45.7,29.89,East,79,6.0,11.0,58,0.00,,,0.00,meteohub,2013-11-27 23:39:00,
2013-11-27 15:44:00,60.4,45.7,29.89,ENE,69,7.0,11.0,58,0.00,,,0.00,meteohub,2013-11-27 23:44:00,
2013-11-27 15:49:00,60.4,46.0,29.89,ENE,76,3.0,11.0,59,0.00,,,0.00,meteohub,2013-11-27 23:49:00,
2013-11-27 15:54:00,60.3,45.9,29.89,East,86,5.0,10.0,59,0.00,,,0.00,meteohub,2013-11-27 23:54:00,
2013-11-27 15:59:00,60.3,45.9,29.89,ENE,73,3.0,10.0,59,0.00,,,0.00,meteohub,2013-11-27 23:59:00,
2013-11-27 16:04:00,60.1,45.7,29.89,ENE,71,3.0,10.0,59,0.00,,,0.00,meteohub,2013-11-28 00:04:00,
2013-11-27 16:09:00,60.1,45.7,29.89,ENE,58,8.0,10.0,59,0.00,,,0.00,meteohub,2013-11-28 00:09:00,
2013-11-27 16:14:00,60.1,45.7,29.89,East,82,5.0,10.0,59,0.00,,,0.00,meteohub,2013-11-28 00:14:00,
2013-11-27 16:19:00,59.7,45.9,29.89,ENE,62,3.0,10.0,60,0.00,,,0.00,meteohub,2013-11-28 00:19:00,
2013-11-27 16:24:00,59.7,45.9,29.89,East,90,7.0,10.0,60,0.00,,,0.00,meteohub,2013-11-28 00:24:00,
2013-11-27 16:29:00,59.5,45.7,29.89,ENE,74,2.0,13.0,60,0.00,,,0.00,meteohub,2013-11-28 00:29:00,
2013-11-27 16:34:00,59.5,45.7,29.90,ENE,78,6.0,13.0,60,0.00,,,0.00,meteohub,2013-11-28 00:34:00,
2013-11-27 16:39:00,59.5,46.0,29.90,East,81,0.0,13.0,61,0.00,,,0.00,meteohub,2013-11-28 00:39:00,
2013-11-27 16:44:00,59.4,45.9,29.90,East,81,1.0,8.0,61,0.00,,,0.00,meteohub,2013-11-28 00:44:00,
2013-11-27 16:49:00,59.4,45.9,29.90,East,82,0.0,6.0,61,0.00,,,0.00,meteohub,2013-11-28 00:49:00,
2013-11-27 16:54:00,59.2,45.7,29.90,East,81,0.0,5.0,61,0.00,,,0.00,meteohub,2013-11-28 00:54:00,
2013-11-27 16:59:00,59.2,45.7,29.90,East,80,2.0,5.0,61,0.00,,,0.00,meteohub,2013-11-28 00:59:00,
2013-11-27 17:04:00,59.4,45.9,29.90,East,81,0.0,6.0,61,0.00,,,0.00,meteohub,2013-11-28 01:04:00,
2013-11-27 17:09:00,59.2,45.7,29.90,East,81,0.0,6.0,61,0.00,,,0.00,meteohub,2013-11-28 01:09:00,
2013-11-27 17:14:00,59.2,45.7,29.90,East,81,2.0,6.0,61,0.00,,,0.00,meteohub,2013-11-28 01:14:00,
2013-11-27 17:19:00,59.2,45.7,29.90,East,81,0.0,6.0,61,0.00,,,0.00,meteohub,2013-11-28 01:19:00,
2013-11-27 17:25:00,59.2,45.7,29.90,East,81,0.0,6.0,61,0.00,,,0.00,meteohub,2013-11-28 01:25:00,
2013-11-27 17:30:00,59.0,45.5,29.90,East,81,3.0,6.0,61,0.00,,,0.00,meteohub,2013-11-28 01:30:00,
2013-11-27 17:35:00,59.0,46.0,29.90,East,81,2.0,3.0,62,0.00,,,0.00,meteohub,2013-11-28 01:35:00,
2013-11-27 17:40:00,59.0,45.5,29.90,East,80,0.0,5.0,61,0.00,,,0.00,meteohub,2013-11-28 01:40:00,
2013-11-27 17:45:00,59.0,45.5,29.90,ENE,74,4.0,6.0,61,0.00,,,0.00,meteohub,2013-11-28 01:45:00,
2013-11-27 17:50:00,58.8,45.9,29.90,ENE,75,3.0,6.0,62,0.00,,,0.00,meteohub,2013-11-28 01:50:00,
2013-11-27 17:55:00,58.8,45.9,29.90,ENE,75,0.0,6.0,62,0.00,,,0.00,meteohub,2013-11-28 01:55:00,
2013-11-27 18:00:00,58.8,45.9,29.90,ENE,76,0.0,5.0,62,0.00,,,0.00,meteohub,2013-11-28 02:00:00,
2013-11-27 18:05:00,58.8,45.9,29.90,ENE,76,0.0,5.0,62,0.00,,,0.00,meteohub,2013-11-28 02:05:00,
2013-11-27 18:10:00,58.6,45.7,29.90,ENE,76,0.0,4.0,62,0.00,,,0.00,meteohub,2013-11-28 02:10:00,
2013-11-27 18:15:00,58.6,45.7,29.90,ENE,75,0.0,0.0,62,0.00,,,0.00,meteohub,2013-11-28 02:15:00,
2013-11-27 18:20:00,58.6,45.7,29.90,ENE,75,1.0,2.0,62,0.00,,,0.00,meteohub,2013-11-28 02:20:00,
2013-11-27 18:25:00,58.6,45.7,29.90,ENE,76,0.0,4.0,62,0.00,,,0.00,meteohub,2013-11-28 02:25:00,
2013-11-27 18:30:00,58.6,45.7,29.90,ENE,75,4.0,4.0,62,0.00,,,0.00,meteohub,2013-11-28 02:30:00,
2013-11-27 18:35:00,58.8,45.9,29.90,East,93,6.0,6.0,62,0.00,,,0.00,meteohub,2013-11-28 02:35:00,
2013-11-27 18:40:00,59.0,45.5,29.90,East,93,0.0,7.0,61,0.00,,,0.00,meteohub,2013-11-28 02:40:00,
2013-11-27 18:45:00,58.8,45.3,29.90,East,93,0.0,7.0,61,0.00,,,0.00,meteohub,2013-11-28 02:45:00,
2013-11-27 18:50:00,58.8,45.9,29.90,East,93,2.0,7.0,62,0.00,,,0.00,meteohub,2013-11-28 02:50:00,
2013-11-27 18:55:00,58.6,45.7,29.90,East,93,0.0,7.0,62,0.00,,,0.00,meteohub,2013-11-28 02:55:00,
2013-11-27 19:00:00,58.6,45.7,29.90,East,97,5.0,5.0,62,0.00,,,0.00,meteohub,2013-11-28 03:00:00,
2013-11-27 19:05:00,58.5,45.5,29.90,East,85,6.0,7.0,62,0.00,,,0.00,meteohub,2013-11-28 03:05:00,
2013-11-27 19:10:00,58.5,45.5,29.90,ENE,75,4.0,8.0,62,0.00,,,0.00,meteohub,2013-11-28 03:10:00,
2013-11-27 19:15:00,58.5,45.5,29.90,East,89,3.0,8.0,62,0.00,,,0.00,meteohub,2013-11-28 03:15:00,
2013-11-27 19:20:00,58.5,45.5,29.90,East,88,0.0,7.0,62,0.00,,,0.00,meteohub,2013-11-28 03:20:00,
2013-11-27 19:25:00,58.5,45.5,29.91,East,89,0.0,6.0,62,0.00,,,0.00,meteohub,2013-11-28 03:25:00,
2013-11-27 19:30:00,58.3,45.0,29.91,East,88,0.0,5.0,61,0.00,,,0.00,meteohub,2013-11-28 03:30:00,
2013-11-27 19:35:00,58.3,45.0,29.90,East,89,0.0,2.0,61,0.00,,,0.00,meteohub,2013-11-28 03:35:00,
2013-11-27 19:40:00,58.3,45.0,29.91,East,88,0.0,0.0,61,0.00,,,0.00,meteohub,2013-11-28 03:40:00,
2013-11-27 19:45:00,58.3,45.0,29.91,East,89,0.0,0.0,61,0.00,,,0.00,meteohub,2013-11-28 03:45:00,
2013-11-27 19:50:00,57.9,44.6,29.91,East,89,3.0,0.0,61,0.00,,,0.00,meteohub,2013-11-28 03:50:00,
2013-11-27 19:55:00,58.3,45.0,29.91,ENE,72,3.0,5.0,61,0.00,,,0.00,meteohub,2013-11-28 03:55:00,
2013-11-27 20:00:00,58.5,44.6,29.90,ENE,78,0.0,8.0,60,0.00,,,0.00,meteohub,2013-11-28 04:00:00,
2013-11-27 20:05:00,58.6,44.8,29.91,ENE,72,5.0,8.0,60,0.00,,,0.00,meteohub,2013-11-28 04:05:00,
2013-11-27 20:10:00,58.8,44.6,29.90,ENE,76,2.0,7.0,59,0.00,,,0.00,meteohub,2013-11-28 04:10:00,
2013-11-27 20:15:00,58.8,45.0,29.91,East,89,0.0,7.0,60,0.00,,,0.00,meteohub,2013-11-28 04:15:00,
2013-11-27 20:20:00,58.5,45.1,29.91,East,89,0.0,10.0,61,0.00,,,0.00,meteohub,2013-11-28 04:20:00,
2013-11-27 20:25:00,57.7,45.3,29.91,East,89,0.0,10.0,63,0.00,,,0.00,meteohub,2013-11-28 04:25:00,
2013-11-27 20:30:00,57.4,45.0,29.91,East,89,0.0,1.0,63,0.00,,,0.00,meteohub,2013-11-28 04:30:00,
2013-11-27 20:36:00,57.0,45.0,29.91,East,89,0.0,0.0,64,0.00,,,0.00,meteohub,2013-11-28 04:36:00,
2013-11-27 20:41:00,56.8,45.1,29.91,East,89,2.0,0.0,65,0.00,,,0.00,meteohub,2013-11-28 04:41:00,
2013-11-27 20:46:00,56.8,45.1,29.91,East,89,0.0,2.0,65,0.00,,,0.00,meteohub,2013-11-28 04:46:00,
2013-11-27 20:51:00,57.0,45.0,29.91,East,89,0.0,2.0,64,0.00,,,0.00,meteohub,2013-11-28 04:51:00,
2013-11-27 20:56:00,57.2,45.5,29.91,East,89,0.0,2.0,65,0.00,,,0.00,meteohub,2013-11-28 04:56:00,
2013-11-27 21:01:00,57.0,45.3,29.91,East,89,0.0,2.0,65,0.00,,,0.00,meteohub,2013-11-28 05:01:00,
2013-11-27 21:02:00,57.0,45.3,29.91,East,89,0.0,2.0,65,0.00,,,0.00,meteohub,2013-11-28 05:02:00,
2013-11-27 21:04:00,56.8,45.1,29.91,East,89,0.0,2.0,65,0.00,,,0.00,meteohub,2013-11-28 05:04:00,
2013-11-27 21:07:00,56.8,45.1,29.91,East,89,0.0,2.0,65,0.00,,,0.00,meteohub,2013-11-28 05:07:00,
2013-11-27 21:12:00,56.7,45.0,29.91,East,89,0.0,0.0,65,0.00,,,0.00,meteohub,2013-11-28 05:12:00,
2013-11-27 21:17:00,56.7,45.0,29.91,East,80,3.0,0.0,65,0.00,,,0.00,meteohub,2013-11-28 05:17:00,
2013-11-27 21:22:00,56.8,44.4,29.91,East,81,0.0,5.0,63,0.00,,,0.00,meteohub,2013-11-28 05:22:00,
2013-11-27 21:27:00,57.0,44.6,29.91,East,80,0.0,5.0,63,0.00,,,0.00,meteohub,2013-11-28 05:27:00,
2013-11-27 21:32:00,57.4,44.4,29.91,East,81,0.0,5.0,62,0.00,,,0.00,meteohub,2013-11-28 05:32:00,
2013-11-27 21:37:00,57.6,44.6,29.91,East,81,0.0,0.0,62,0.00,,,0.00,meteohub,2013-11-28 05:37:00,
2013-11-27 21:42:00,57.4,45.0,29.91,East,80,0.0,0.0,63,0.00,,,0.00,meteohub,2013-11-28 05:42:00,
2013-11-27 21:47:00,57.0,45.0,29.91,East,79,0.0,1.0,64,0.00,,,0.00,meteohub,2013-11-28 05:47:00,
2013-11-27 21:53:00,57.0,44.6,29.91,East,79,3.0,3.0,63,0.00,,,0.00,meteohub,2013-11-28 05:53:00,
2013-11-27 21:58:00,56.8,44.8,29.92,East,79,2.0,3.0,64,0.00,,,0.00,meteohub,2013-11-28 05:58:00,
2013-11-27 22:03:00,56.8,44.8,29.92,East,79,0.0,3.0,64,0.00,,,0.00,meteohub,2013-11-28 06:03:00,
2013-11-27 22:08:00,56.7,44.6,29.92,East,79,0.0,3.0,64,0.00,,,0.00,meteohub,2013-11-28 06:08:00,
2013-11-27 22:13:00,56.5,44.1,29.92,East,79,0.0,3.0,63,0.00,,,0.00,meteohub,2013-11-28 06:13:00,
2013-11-27 22:18:00,56.5,44.1,29.92,East,79,0.0,0.0,63,0.00,,,0.00,meteohub,2013-11-28 06:18:00,
2013-11-27 22:23:00,56.5,43.7,29.92,East,79,0.0,0.0,62,0.00,,,0.00,meteohub,2013-11-28 06:23:00,
2013-11-27 22:28:00,56.7,43.3,29.92,East,79,0.0,0.0,61,0.00,,,0.00,meteohub,2013-11-28 06:28:00,
2013-11-27 22:33:00,57.0,43.7,29.92,East,79,0.0,2.0,61,0.00,,,0.00,meteohub,2013-11-28 06:33:00,
2013-11-27 22:38:00,57.0,43.7,29.92,East,79,0.0,2.0,61,0.00,,,0.00,meteohub,2013-11-28 06:38:00,
2013-11-27 22:43:00,57.0,43.3,29.92,East,79,2.0,2.0,60,0.00,,,0.00,meteohub,2013-11-28 06:43:00,
2013-11-27 22:48:00,57.6,43.3,29.92,East,81,5.0,5.0,59,0.00,,,0.00,meteohub,2013-11-28 06:48:00,
2013-11-27 22:53:00,58.5,42.8,29.92,ENE,75,5.0,9.0,56,0.00,,,0.00,meteohub,2013-11-28 06:53:00,
2013-11-27 22:58:00,58.8,42.6,29.92,ENE,64,7.0,9.0,55,0.00,,,0.00,meteohub,2013-11-28 06:58:00,
2013-11-27 23:03:00,58.8,42.6,29.91,East,85,3.0,16.0,55,0.00,,,0.00,meteohub,2013-11-28 07:03:00,
2013-11-27 23:08:00,58.8,42.3,29.91,East,85,1.0,16.0,54,0.00,,,0.00,meteohub,2013-11-28 07:08:00,
2013-11-27 23:13:00,58.8,42.3,29.91,ENE,57,4.0,16.0,54,0.00,,,0.00,meteohub,2013-11-28 07:13:00,
2013-11-27 23:18:00,58.6,42.4,29.92,ENE,57,0.0,8.0,55,0.00,,,0.00,meteohub,2013-11-28 07:18:00,
2013-11-27 23:23:00,58.5,42.4,29.92,NE,56,0.0,8.0,55,0.00,,,0.00,meteohub,2013-11-28 07:23:00,
2013-11-27 23:28:00,58.1,42.1,29.92,NE,56,1.0,8.0,55,0.00,,,0.00,meteohub,2013-11-28 07:28:00,
2013-11-27 23:33:00,57.7,42.1,29.92,NE,56,0.0,1.0,56,0.00,,,0.00,meteohub,2013-11-28 07:33:00,
2013-11-27 23:38:00,57.6,42.4,29.92,NE,56,0.0,2.0,57,0.00,,,0.00,meteohub,2013-11-28 07:38:00,
2013-11-27 23:43:00,57.0,41.9,29.92,NE,54,0.0,2.0,57,0.00,,,0.00,meteohub,2013-11-28 07:43:00,
2013-11-27 23:48:00,56.8,42.3,29.92,NE,54,0.0,2.0,58,0.00,,,0.00,meteohub,2013-11-28 07:48:00,
2013-11-27 23:53:00,56.5,42.3,29.92,NW,322,0.0,0.0,59,0.00,,,0.00,meteohub,2013-11-28 07:53:00,
2013-11-27 23:58:00,55.8,43.0,29.92,NW,322,0.0,5.0,62,0.00,,,0.00,meteohub,2013-11-28 07:58:00,